Location: Lecco
(45.8566°N, 9.3977°E)
Time: 03:57:27
(UTC+02:00)

Transit 4A - Pass Details

Date: 15 August 2020
Orbit: 863 x 982 km, 66.8° (Epoch: 23 September)

Event Time Altitude Azimuth Distance (km) Brightness Sun altitude
Rises 17:11:25 0° 329° (NNW) 3,649 11.2 33.2°
Reaches altitude 10° 17:14:06 10° 336° (NNW) 2,714 10.5 32.7°
Maximum altitude 17:20:11 45° 48° (NE) 1,315 8.7 31.7°
Drops below altitude 10° 17:26:17 10° 120° (ESE) 2,731 10.0 30.7°
Sets 17:28:59 0° 126° (SE) 3,675 10.7 30.2°
